SCP
0 0 0 0 0 0 0 0 0 0 0 0 0 0 0 0 0 0 0 0 0 1 1 1 1 1 1 1 1 1 1 1 1 1 0 0 0 0 0 0 0 0 0 0 0 0 0 0 0
0 0 0 0 0 0 0 0 0 0 0 0 0 0 0 0 0 0 0 0 0 1 1 1 1 1 1 1 1 1 1 1 1 1 1 0 0 1 0 0 0 0 0 0 0 0 0 0 0
0 0 0 0 0 0 0 0 0 0 0 0 0 0 0 0 0 0 0 0 1 1 1 1 2 2 2 1 1 1 1 1 1 1 1 1 1 1 1 1 0 0 0 0 0 0 0 0 0
0 0 0 0 0 0 0 0 0 0 0 0 0 0 0 0 0 0 0 1 1 1 1 2 2 2 2 2 1 1 1 1 1 1 1 1 1 1 1 1 1 1 0 0 0 0 0 0 0
0 0 0 0 0 0 0 0 0 0 0 0 0 0 0 0 0 0 1 1 1 2 2 2 2 2 2 2 2 1 1 1 1 1 1 1 1 1 1 1 1 1 0 0 0 0 0 0 0
0 0 0 0 0 0 0 0 0 0 0 0 0 0 0 0 1 1 1 1 2 2 2 2 2 3 3 2 2 2 2 2 1 1 1 1 1 1 1 1 1 1 0 0 0 0 0 0 0
0 0 0 0 0 0 0 0 0 0 0 0 0 0 0 1 1 1 1 1 2 2 2 2 3 3 3 3 3 2 2 2 2 1 1 1 1 1 1 1 1 1 1 0 0 0 0 0 0
0 0 0 0 0 0 0 0 0 0 0 0 0 0 0 1 1 1 1 1 2 2 2 2 3 3 3 3 3 2 2 2 2 2 2 1 1 1 1 1 1 1 1 1 0 0 0 0 1
0 0 0 0 0 0 0 0 0 0 0 0 0 0 1 1 2 2 2 2 2 2 2 2 3 3 3 3 3 2 2 2 2 2 2 2 2 2 1 1 1 1 1 1 1 1 1 1 1
0 0 0 0 0 0 0 0 0 0 0 0 0 1 2 3 3 3 2 2 2 2 2 2 3 3 3 3 3 2 2 2 3 3 3 2 2 2 2 2 1 1 1 1 1 1 1 1 1
0 0 0 0 0 0 0 0 0 0 0 1 1 2 3 4 4 4 4 3 3 2 2 3 3 4 4 3 3 3 3 3 2 2 3 3 2 2 2 2 2 2 1 1 1 1 1 1 1
0 0 0 0 0 0 0 0 1 1 1 1 1 2 4 5 5 5 4 3 3 3 3 3 4 4 4 3 3 3 3 3 3 3 3 3 2 2 2 2 2 2 2 1 1 1 2 2 2
0 0 0 0 0 0 0 1 1 1 1 1 2 3 4 5 5 5 4 3 4 4 4 4 5 4 4 3 3 3 3 3 3 3 3 3 2 2 2 2 2 2 2 1 1 1 1 1 1
0 0 0 0 0 0 1 1 2 2 3 3 3 4 4 4 4 4 4 4 4 4 4 4 4 4 3 3 3 3 3 3 3 3 3 3 2 2 2 2 1 1 1 1 1 1 1 1 1
0 0 0 0 0 0 1 1 2 4 4 4 4 4 4 4 3 3 3 4 4 4 4 4 4 3 3 3 3 4 3 3 3 3 3 3 2 2 2 2 1 1 1 2 2 1 1 1 1
0 0 0 0 0 0 1 1 3 4 5 5 5 5 4 3 3 3 3 3 3 4 4 4 4 4 3 3 3 3 3 3 4 4 3 2 2 2 2 2 2 2 2 2 2 2 1 1 1
0 0 0 0 0 1 1 2 2 4 4 5 5 4 3 3 3 3 3 3 4 5 5 5 5 5 4 3 4 4 5 6 7 5 3 2 1 1 1 2 2 2 1 1 1 1 1 1 1
0 0 0 0 0 1 1 2 2 3 3 4 4 3 3 3 3 3 3 4 4 5 6 7 6 6 5 5 5 5 6 7 8 7 4 2 2 1 1 1 1 1 1 1 1 1 1 1 0
0 0 0 0 0 1 1 2 2 2 2 2 3 2 3 3 3 4 4 4 5 5 7 7 7 7 7 7 7 6 5 5 6 5 4 3 2 1 1 1 1 1 1 1 1 0 0 0 1
0 0 0 0 0 1 1 1 1 1 1 2 2 2 2 2 3 4 4 5 5 5 6 7 7 7 8 7 6 5 4 3 2 3 2 2 1 1 1 1 1 1 1 1 0 0 0 0 1
0 0 0 0 0 1 1 1 1 1 1 2 2 2 2 2 3 3 4 4 4 4 4 5 5 5 5 5 4 3 2 2 2 1 1 1 1 1 1 1 1 0 0 0 0 0 0 0 0
0 0 0 0 0 0 0 1 1 1 1 1 2 2 1 2 2 2 3 3 2 2 2 2 2 2 1 2 2 2 1 1 1 1 1 1 1 1 1 1 1 0 0 0 0 0 0 0 0
0 0 0 0 0 0 0 0 1 1 1 1 1 1 1 1 1 1 1 1 1 1 1 1 1 1 1 1 1 1 1 1 1 0 0 0 1 1 1 1 1 0 0 0 0 0 0 1 0
0 0 0 0 0 0 0 0 1 1 1 1 1 1 0 0 0 0 1 1 1 1 1 1 0 1 1 1 1 1 1 1 1 0 0 0 0 0 1 1 0 0 0 0 0 1 1 1 0
0 0 0 0 0 0 0 0 0 1 1 1 1 1 0 0 0 0 0 0 0 0 0 0 0 0 1 1 1 1 1 1 1 0 0 0 0 0 0 0 0 0 0 0 0 1 1 1 1
0 0 0 0 0 0 0 0 1 1 1 0 0 0 0 0 0 0 0 0 0 0 0 0 0 0 0 0 0 0 0 0 0 0 0 0 0 0 0 0 0 0 0 0 0 0 0 1 1
0 0 0 0 0 0 0 0 1 0 0 0 0 0 0 0 0 0 0 0 0 0 0 0 0 0 0 0 0 0 0 0 0 0 0 0 0 0 0 0 0 0 0 0 0 0 0 0 0
0 0 0 0 0 0 0 0 0 0 0 0 0 0 0 0 0 0 0 0 0 0 0 0 0 0 0 0 0 0 0 0 0 0 0 0 0 0 0 0 0 0 0 0 0 0 0 0 0
0 0 0 0 0 0 0 0 0 0 0 0 0 0 0 0 0 0 0 0 0 0 0 0 0 0 0 0 0 0 0 0 0 0 0 0 0 0 0 0 0 0 0 0 0 0 0 0 0
0 0 0 0 0 0 0 0 0 0 0 0 0 0 0 0 0 0 0 0 0 0 0 0 0 0 0 0 0 0 0 0 0 0 0 0 0 0 0 0 0 0 0 0 0 0 0 0 0
Wind_Speed
14 10 4 2 1 1 4 5 3 3 3 1 2 3 5 5 5 4 1 11 16 15 14 17 20 19 18 18 17 16 16 16 16 16 15 15 15 14 14 13 12 11 10 10 9 9 8 8 8
9 8 2 1 1 2 5 4 4 3 1 1 2 3 3 1 1 4 5 8 15 15 12 14 20 20 19 18 17 16 16 15 15 15 15 14 14 14 13 13 12 11 10 10 9 9 8 8 8
8 4 3 2 1 3 5 4 3 2 1 1 2 3 1 1 4 6 6 12 13 12 10 14 22 20 19 18 17 16 15 15 15 14 14 14 13 13 13 12 12 11 11 10 9 9 8 8 8
5 1 2 2 3 5 5 5 2 2 1 3 3 3 2 1 5 7 12 15 14 11 9 13 22 20 19 18 17 16 15 15 14 14 14 13 13 13 12 12 11 11 10 10 10 9 9 8 8
2 3 2 2 5 6 5 4 2 1 1 1 3 2 1 3 7 12 15 16 15 12 9 11 20 20 19 18 17 16 16 15 14 14 14 13 13 12 12 12 11 11 11 10 10 10 9 9 9
3 3 2 3 6 5 4 3 1 2 1 2 4 2 0 3 7 12 13 13 13 13 10 10 20 20 19 18 18 17 16 15 15 14 14 13 13 13 12 12 12 11 11 11 11 10 10 10 10
3 3 3 4 4 5 4 2 1 2 2 3 6 4 1 4 6 10 10 10 11 12 10 8 11 14 18 18 18 17 16 15 15 14 14 13 13 13 13 12 12 12 12 12 11 11 11 11 11
4 4 2 3 4 6 3 2 2 2 3 3 6 6 5 6 10 9 9 8 9 10 9 8 8 8 9 11 16 17 16 16 15 15 15 14 14 13 14 12 12 13 13 13 13 13 13 12 12
4 3 3 4 4 6 3 2 3 1 1 2 3 4 5 15 15 12 9 7 9 10 9 8 7 7 7 7 12 14 15 15 15 13 16 14 7 7 8 11 13 14 14 14 15 15 14 14 13
4 3 8 6 4 5 5 4 4 1 1 2 1 2 11 17 16 15 13 13 13 13 12 9 9 7 6 7 6 5 6 7 7 5 6 5 4 5 8 9 15 15 16 16 16 16 15 12 6
5 7 5 5 5 5 5 4 2 3 5 8 7 7 14 15 13 13 12 11 12 11 11 10 10 8 7 5 4 3 3 3 4 5 6 4 4 4 6 4 7 8 11 8 10 10 7 6 6
3 6 5 5 4 3 4 3 2 5 9 6 4 10 13 14 13 11 10 10 9 9 10 9 9 9 8 6 4 4 3 3 4 5 6 5 4 4 4 4 5 4 4 5 5 4 6 7 8
3 5 5 6 8 6 4 3 2 5 8 1 6 9 11 11 9 8 7 6 6 7 7 7 7 8 7 6 4 5 5 5 5 4 5 6 5 5 5 4 4 5 4 4 4 5 5 5 6
4 5 8 8 6 3 2 2 2 7 5 2 6 7 7 7 6 4 4 5 5 5 6 6 7 6 5 5 4 3 3 3 4 4 6 7 6 6 5 5 4 4 4 4 4 4 4 3 3
2 5 9 5 3 2 2 5 6 9 4 5 5 7 8 7 7 5 4 5 6 6 5 6 6 5 5 5 5 3 2 3 4 5 6 7 6 5 5 4 4 4 3 3 3 3 2 2 3
3 3 5 7 6 3 4 2 10 11 6 7 7 8 9 7 7 5 4 3 4 5 5 5 5 5 5 5 4 3 2 4 4 4 4 6 6 7 5 4 4 3 2 2 2 2 1 2 2
4 3 4 7 7 5 7 3 10 11 11 10 9 8 8 8 9 7 6 4 2 3 4 3 3 4 4 4 4 4 3 4 3 3 4 5 7 7 5 4 4 3 2 2 2 2 2 2 2
3 3 3 4 4 7 7 6 10 12 12 11 10 10 10 10 8 8 7 6 5 3 3 2 1 1 2 1 1 1 2 3 2 3 4 5 5 6 5 4 3 3 2 2 2 2 2 2 2
2 2 4 3 1 6 7 8 10 10 11 11 10 9 9 8 7 8 8 8 7 6 5 4 3 1 2 1 0 1 1 2 2 3 5 5 5 5 5 4 3 3 3 3 3 2 2 1 1
3 2 2 1 2 4 5 7 7 10 9 8 8 8 8 8 9 10 9 8 7 6 5 6 5 4 3 2 1 0 1 0 0 1 2 2 3 4 4 4 3 3 3 3 3 3 2 1 1
3 3 3 2 1 3 3 4 4 5 7 8 9 8 8 8 7 8 8 8 8 7 6 6 6 5 5 3 1 1 2 2 1 1 1 1 1 2 2 3 3 3 3 3 4 4 4 3 2
3 3 2 2 2 1 1 0 2 3 5 7 7 7 7 7 6 5 6 6 6 5 5 5 5 4 4 4 3 2 1 1 1 1 1 2 2 1 0 1 2 3 3 4 4 4 3 4 3
2 2 3 2 3 2 4 2 3 2 3 4 4 5 5 5 5 5 4 4 4 4 4 3 3 4 3 3 4 4 1 0 1 1 2 2 2 2 2 1 1 2 3 3 4 4 5 4 4
2 4 5 5 5 2 2 1 3 1 1 1 2 3 3 4 4 4 4 3 3 3 2 2 2 2 1 2 2 3 3 2 1 0 1 1 1 1 2 1 1 2 2 3 4 4 5 5 5
5 6 6 7 5 3 2 1 3 1 1 0 1 3 3 3 3 3 4 3 3 4 3 2 2 2 2 1 1 2 2 2 2 2 1 1 1 1 2 1 2 2 2 3 3 4 5 5 6
2 6 5 3 4 4 2 1 2 1 2 2 1 2 3 4 4 4 5 4 5 5 4 4 4 4 4 3 3 3 3 2 2 3 2 2 2 3 3 2 3 3 3 3 3 3 5 5 6
2 3 3 5 1 1 3 2 2 3 3 3 3 3 4 4 5 5 6 5 6 6 5 5 5 6 6 5 5 5 4 4 4 4 4 3 3 3 3 3 3 3 3 3 3 3 4 4 6
5 5 4 4 1 2 3 2 3 5 5 4 4 5 5 5 5 6 6 5 6 5 6 6 6 7 7 6 6 5 6 6 6 5 6 5 5 4 4 4 4 4 4 4 3 4 4 5 5
7 6 5 4 3 2 2 3 2 3 3 4 5 5 6 6 6 6 6 6 6 6 6 6 7 7 7 7 7 6 7 6 6 6 7 7 6 6 6 6 5 5 5 4 4 5 5 6 6
4 4 2 2 1 2 1 3 2 2 2 3 5 6 7 7 7 7 7 7 6 7 7 7 7 7 8 8 7 8 8 7 7 8 8 7 7 7 7 6 6 6 6 5 5 6 6 6 6
Wind_Direction
145 139 129 117 90 12 278 265 261 302 324 337 139 158 156 165 184 216 88 144 140 149 158 165 163 159 155 153 151 149 149 148 148 149 150 152 154 156 158 160 162 163 161 158 156 154 151 147 143
142 145 139 111 90 353 289 270 294 286 225 126 78 83 83 136 96 114 129 145 143 148 155 161 164 161 158 156 155 155 155 155 154 156 157 158 160 162 165 167 169 169 168 165 164 163 160 157 153
153 169 131 115 181 223 271 274 279 301 202 83 70 58 99 201 151 158 157 144 141 147 154 165 165 163 161 159 159 160 161 162 162 163 164 166 168 170 171 173 176 177 176 175 175 174 172 169 167
153 116 83 77 259 243 242 266 273 300 350 59 92 75 51 21 156 155 144 146 145 149 154 169 166 165 164 163 164 166 168 169 171 172 173 175 177 179 181 182 184 186 187 187 187 187 186 184 182
102 100 60 323 270 264 256 265 225 233 264 75 107 108 17 22 106 134 146 151 152 153 158 171 167 168 168 168 170 173 175 177 179 181 182 184 187 189 191 192 193 196 198 200 200 200 199 198 198
85 80 79 279 276 279 277 262 255 201 177 134 125 123 280 107 130 147 151 153 155 158 160 169 171 171 172 173 176 179 181 184 187 189 191 193 196 199 201 203 204 206 209 212 214 214 212 211 210
136 128 203 246 280 292 275 275 239 216 195 192 149 139 218 150 150 145 144 142 150 159 161 169 172 175 177 179 182 185 188 190 194 197 200 202 205 208 211 213 216 218 220 223 225 226 225 223 221
157 126 239 259 264 275 279 297 270 209 226 167 146 162 207 178 142 133 128 134 151 162 168 169 168 170 174 180 188 191 194 197 201 204 207 210 213 215 219 220 225 229 230 232 233 234 234 233 230
124 91 239 240 243 269 276 282 279 247 178 201 193 188 176 139 139 136 136 143 163 172 177 174 171 168 168 175 192 195 200 204 206 209 214 215 217 220 226 230 231 236 239 240 240 240 239 238 237
123 174 232 229 230 267 283 249 243 232 239 250 244 108 127 141 152 158 164 169 177 183 185 185 181 174 169 185 191 193 201 204 204 203 214 212 205 216 227 236 239 242 245 247 247 245 243 241 234
171 207 243 260 256 266 278 269 222 174 237 232 214 163 148 156 165 171 173 176 183 182 184 189 189 183 180 188 186 193 201 199 204 204 213 215 210 216 229 230 246 250 252 250 251 249 239 228 223
219 249 251 271 279 279 254 254 240 205 238 250 193 153 158 165 172 174 176 178 174 175 186 185 184 185 187 190 197 198 202 204 212 212 211 211 218 222 227 232 233 236 243 250 250 244 235 229 227
247 269 275 267 280 255 242 240 240 263 268 326 107 130 154 162 168 169 163 161 159 171 181 181 183 184 187 191 204 203 210 213 217 217 213 210 217 225 228 237 235 236 234 239 245 241 235 230 229
263 276 284 281 271 247 202 309 355 296 305 57 109 126 143 146 139 124 132 150 161 171 174 167 175 185 183 191 211 215 210 215 217 220 221 215 217 221 222 234 236 236 232 233 233 232 226 227 224
291 308 312 300 301 283 101 3 344 322 20 76 93 100 92 84 88 106 140 155 162 167 164 165 173 179 187 193 207 213 218 219 222 223 222 223 223 227 222 223 232 232 225 222 221 227 215 223 226
14 11 325 314 345 352 101 345 343 347 65 70 73 81 83 73 68 61 66 103 146 151 153 168 177 175 185 185 186 189 209 228 227 223 221 217 220 216 215 212 220 214 204 205 203 198 208 226 231
20 359 312 320 2 32 74 43 352 10 56 58 55 61 64 58 45 36 39 55 76 131 141 152 173 188 191 192 188 187 188 224 227 219 216 215 210 211 207 205 206 192 186 199 209 178 189 216 234
294 314 312 315 357 52 70 51 18 26 52 56 51 51 52 50 38 31 31 37 37 38 74 101 118 173 179 181 192 230 196 214 206 216 214 212 207 201 195 198 196 184 178 192 195 183 191 213 231
236 258 282 284 86 71 74 60 33 28 41 42 42 45 46 41 36 40 39 36 37 31 34 44 58 53 111 109 85 312 223 200 209 220 216 211 211 199 186 191 187 183 186 200 194 175 189 211 177
208 245 272 314 80 102 94 69 50 41 41 38 40 39 39 37 35 36 40 40 38 39 39 46 48 37 48 74 42 303 299 340 290 276 254 234 218 203 194 190 191 189 188 199 200 183 173 194 165
214 203 222 210 71 73 106 49 38 45 44 41 38 35 35 42 39 31 36 44 44 38 34 50 56 52 46 57 55 23 19 357 359 309 296 297 252 207 196 194 188 188 192 205 207 191 182 193 197
255 249 214 171 117 328 65 122 341 20 29 28 22 22 23 26 32 29 29 32 38 33 34 44 58 59 54 73 80 73 82 270 298 300 322 342 358 355 76 201 197 200 200 208 213 200 192 180 194
226 44 68 83 120 61 24 107 294 17 14 5 3 8 6 3 10 12 13 17 16 17 17 26 37 44 41 68 93 101 101 174 279 328 357 3 0 6 6 339 229 219 214 215 214 200 197 194 192
103 69 57 51 67 42 332 119 285 307 279 296 337 350 347 343 347 343 341 345 338 334 341 356 10 12 4 65 95 124 140 155 150 355 355 358 345 351 349 333 295 254 238 230 224 213 209 207 205
56 68 23 2 9 271 311 112 260 292 42 190 291 308 319 320 318 311 305 301 293 290 290 297 299 296 292 265 183 183 179 175 179 197 204 205 244 262 281 301 289 274 256 243 224 216 220 211 210
31 117 144 215 240 281 351 303 296 25 39 30 358 321 326 320 306 294 284 280 277 275 274 272 267 264 261 246 238 229 212 206 215 213 211 222 223 231 241 262 276 280 277 267 239 228 228 219 220
66 71 143 135 140 314 304 311 3 43 12 357 343 333 323 313 309 303 298 292 286 283 276 265 263 264 261 253 250 249 236 223 227 230 225 228 233 239 238 245 256 270 275 271 253 239 237 227 226
68 119 76 91 111 303 317 345 335 336 332 342 349 338 321 316 316 314 310 306 297 288 287 287 273 267 268 264 253 249 242 236 233 230 232 232 236 238 244 249 250 257 265 263 249 244 240 234 235
12 37 67 84 116 146 294 307 346 314 336 344 338 331 322 318 315 311 309 305 297 293 286 281 277 272 271 266 261 260 256 249 242 239 240 237 238 236 236 239 241 247 253 255 247 246 241 236 238
63 44 76 91 26 93 173 276 343 9 3 348 330 323 316 310 302 299 302 303 300 295 289 280 273 268 266 265 263 259 258 255 247 243 243 237 236 237 235 235 238 241 244 243 242 250 249 241 242